Regional Weather Roundup
Issued by NWS Charleston, SC

Current Version | Previous Version | Graphics & Text | Print | Product List | Glossary On
Versions: 1 2 3 4 5 6 7 8 9 10 11 12 13 14 15 16 17 18 19 20 21 22 23 24 25 26 27 28 29 30 31 32 33 34 35 36 37 38 39 40 41 42 43 44 45 46 47 48 49 50
000
ASUS42 KCHS 230012
RWRCHS
REGIONAL WEATHER ROUNDUP
NATIONAL WEATHER SERVICE CHARLESTON SC
800 PM EDT FRI MAY 22 2015

NOTE: "FAIR" INDICATES FEW OR NO CLOUDS BELOW 12,000 FEET WITH NO
SIGNIFICANT WEATHER AND/OR OBSTRUCTIONS TO VISIBILITY.

NOT ALL STATIONS ARE QUALITY CONTROLLED BY THE NATIONAL
WEATHER SERVICE. USE DATA WITH CAUTION...ESPECIALLY
DEWPOINT OBSERVATIONS.

SCZ027-030-031-034>040-042>050-230100-
...SOUTHEAST SOUTH CAROLINA...

CITY           SKY/WX    TMP DP  RH WIND       PRES   REMARKS
N CHARLESTON   PTCLDY    71  59  65 SE7       30.20R
6HR MIN TEMP:  71; 6HR MAX TEMP:  79;

WATERFRONT PAR   N/A     72  61  68 E6        30.16R
MOUNT PLEASANT FAIR      70  61  73 E3        30.20R
JOHNS ISLAND   CLEAR     72  61  68 E7        30.20R
PINOPOLIS        N/A     81  54  39 VRB3      30.09F
MONCKS CORNER  MOCLDY    73  57  56 CALM      30.19R
SUMMERVILLE    FAIR      72  61  68 CALM      30.20R
BEAUFORT MCAS  CLEAR     73  62  68 E8        30.19R
6HR MIN TEMP:  73; 6HR MAX TEMP:  80;

BEAUFORT ARPT  FAIR      72  63  73 E6        30.19R
HILTON HEAD IS CLEAR     72  63  73 NE5       30.20R
WALTERBORO     CLEAR     72  54  53 N3        30.20R
ALLENDALE      FAIR      75  54  46 CALM      30.19R

...SOUTHERN MIDLANDS AND PEE DEE...

CITY           SKY/WX    TMP DP  RH WIND       PRES   REMARKS
GEORGETOWN     NOT AVBL
KINGSTREE      NOT AVBL
ORANGEBURG     CLEAR     76  50  40 N6        30.19R
6HR MIN TEMP:  74; 6HR MAX TEMP:  79;

BARNWELL       FAIR      77  52  41 CALM      30.19S
AIKEN          FAIR      73  45  35 N6        30.23S
MANNING        FAIR      72  48  43 CALM      30.20R
COLUMBIA       PTCLDY    77  46  33 NW5       30.19R
6HR MIN TEMP:  75; 6HR MAX TEMP:  81;

SUMTER         CLEAR     75  48  38 NW6       30.18R
6HR MIN TEMP:  75; 6HR MAX TEMP:  79;

FLORENCE       CLEAR     73  49  42 NE6       30.20R
6HR MIN TEMP:  73; 6HR MAX TEMP:  79;

MYRTLE BEACH   PTCLDY    72  55  56 SE5       30.22R
N MYRTLE BEACH PTCLDY    70  58  65 E3        30.20R
6HR MIN TEMP:  70; 6HR MAX TEMP:  74;


$$

GAZ063-065-086>088-099>101-113>116-118-119-134>141-150-230100-
...SOUTHEAST GEORGIA...

CITY           SKY/WX    TMP DP  RH WIND       PRES   REMARKS
SAVANNAH ARPT  MOCLDY    73  60  63 SE9       30.18R
6HR MIN TEMP:  73; 6HR MAX TEMP:  81;

HUNTER AAF     CLEAR     72  61  68 E10       30.16R
6HR MIN TEMP:  72; 6HR MAX TEMP:  79;

FORT STEWART   CLEAR     73  61  65 E5        30.16R
6HR MIN TEMP:  73; 6HR MAX TEMP:  82;

STATESBORO     CLEAR     76  60  58 NE3       30.18R
SYLVANIA       CLEAR     78  58  51 NE5       30.20R
CLAXTON        FAIR      73  64  73 E5        30.18R

...CSRA...CENTRAL AND FAR SOUTHEAST GEORGIA...

CITY           SKY/WX    TMP DP  RH WIND       PRES   REMARKS
THOMSON        CLEAR     74  57  56 N3        30.24S
AUGUSTA-BUSH   CLEAR     76  52  43 N7        30.18R
6HR MIN TEMP:  76; 6HR MAX TEMP:  81;

AUGUSTA-DANIEL CLEAR     77  50  38 N6        30.20R
SWAINSBORO     FAIR      79  55  44 CALM      30.19R
VIDALIA        CLEAR     79  59  50 N5        30.17R
EASTMAN        FAIR      79  58  48 N3        30.19R
HAZLEHURST     FAIR      81  57  43 N3        30.15R
ALMA           CLEAR     79  55  43 N3        30.14R
6HR MIN TEMP:  77; 6HR MAX TEMP:  84;

WAYCROSS       PTCLDY    79  67  66 SE12      30.15R
JESUP          FAIR      77  64  65 E8        30.18R
BAXLEY         FAIR      81  59  47 E6        30.15R
BRUNSWICK      CLEAR     73  61  64 NE9       30.18R
SAINT SIMONS   NOT AVBL

$$

SCZ027-028-034-036>038-045-046-048>050-GAZ119-141-230100-
...LAKE AND SUPPLEMENTAL COASTAL OBSERVATIONS...

STATION/POSITION TIME  TEMP    WIND        PRES    WAVE   SWELL
                       AIR SEA DIR/SP/G            HT/PER HT/PER/DIR
                 (UTC) (F)     (DEG/KT/KT) (MB)    (FT/S) (FT/S/D)
UPR LAKE MARION  NOT AVBL
WINYAH BAY       2245   71     100/  6     1021.0
LAKE MURRAY      2300   76     220/  4/  6 1021.7S
ACE BASIN NERRS  NOT AVBL
FORT PULASKI     2300   73 79   70/ 11/ 15 1021.9R
SAPELO ISLAND    2300   74      70/  9     1021.0S

$$

ANZ835-935-AMZ111-154-330-350-352-354-370-450-454-472-230100-
...C-MAN AND BUOY OBSERVATIONS...

STATION/POSITION TIME  TEMP    WIND        PRES    WAVE   SWELL
                       AIR SEA DIR/SP/G            HT/PER HT/PER/DIR
                 (UTC) (F)     (DEG/KT/KT) (MB)    (FT/S) (FT/S/D)
BUOY 41004       2350   71 76   50/ 14/ 17 1021.6R   4/ 6   2/ 8
BUOY 41008       2350   73 76   70/ 16/ 17 1021.3R   5/ 6
FOLLY BEACH CMAN 0000   71      80/  8/  9 1022.7R
CAPERS NEARSHORE 2308   71      90/ 10/ 16 1022.0R
FRIPP NEARSHORE  2300   73     100/ 12/ 14 1021.4R


STATION/POSITION TIME  TEMP    WIND        PRES    WAVE   SWELL
                       AIR SEA DIR/SP/G            HT/PER HT/PER/DIR
                 (UTC) (F)     (DEG/KT/KT) (MB)    (FT/S) (FT/S/D)
5E ST. MARYS GA  2321      77                N/A     5/ 5
FRYING PAN BUOY  2350   70 74   70/  8/ 10 1023.1R   3/ 6   2/ 70/ 6
BUOY 41025       2350   67 78   40/  8/ 10 1023.1R   3/ 7   3/ 40/ 7
CAPE LOOKOUT NC  0000   67      70/  6/  7 1022.9R
BUOY 41002       2350   72 74   40/ 16/ 19 1021.2R   5/ 8   3/ 10/ 8
BUOY 41010       2320   81 81  360/ 10/ 12 1019.2R
ST AUGUSTINE FL  0000   74 76   40/ 14/ 15 1021.7R


$$



USA.gov is the U.S. government's official web portal to all federal, state and local government web resources and services.